Price, UT

3:10 AM MDT on May 23, 2017 (GMT -0600)
Carbon County

Weather History for KPUC - September, 2012

Change the Weather History Date:

Sunday, September 30, 2012

  Actual Average Record
Temperature  
Mean Temperature 66 °F -  
Max Temperature 81 °F 68 °F 87 °F (1989)
Min Temperature 50 °F 42 °F 24 °F (1986)
Growing Degree Days 16 (Base 50)    
Moisture  
Dew Point 29 °F    
Average Humidity 27    
Maximum Humidity 48    
Minimum Humidity 14    
Precipitation  
Precipitation 0.00 in - - ()
Sea Level Pressure  
Sea Level Pressure 30.10 in    
Wind  
Wind Speed 9 mph (NNW)    
Max Wind Speed 18 mph    
Max Gust Speed 26 mph    
Visibility 10 miles    
Events      
Averages and records for this station are not official NWS values.
T = Trace of Precipitation, MM = Missing Value Source: NWS Daily Summary

Daily Weather History Graph

Daily Weather History Graph

Search for Another Location

Airport or City:

Trip Planner

Search our weather history database for the weather conditions in past years. The results will help you decide how hot, cold, wet, or windy it might be!

Date:

Astronomy

Sep. 30, 2012 Rise Set
Actual Time 7:18 AM MDT 7:06 PM MDT
Civil Twilight 6:51 AM MDT 7:32 PM MDT
Nautical Twilight 6:20 AM MDT 8:04 PM MDT
Astronomical Twilight 5:49 AM MDT 8:35 PM MDT
Moon 7:12 PM MDT (9/30) 7:52 AM MDT (9/30)
Length of Visible Light 12h 41m
Length of Day
11h 47m
Full, 100% of the Moon is Illuminated
Sep 30
Full
Oct 8
Last Quarter
Oct 15
New
Oct 21
First Quarter
Oct 29
Full

Hourly Weather History & Observations

Time (MDT) Temp. Dew Point Humidity Pressure Visibility Wind Dir Wind Speed Gust Speed Precip Events Conditions
12:53 AM 55.0 °F 30.9 °F 40% 30.10 in 10.0 mi North 5.8 mph - N/A   Clear
1:53 AM 55.0 °F 30.9 °F 40% 30.09 in 10.0 mi NNW 9.2 mph - N/A   Clear
2:53 AM 53.1 °F 30.9 °F 43% 30.10 in 10.0 mi North 9.2 mph - N/A   Clear
3:53 AM 53.1 °F 30.9 °F 43% 30.09 in 10.0 mi North 10.4 mph - N/A   Clear
4:53 AM 51.1 °F 30.0 °F 44% 30.12 in 10.0 mi North 8.1 mph - N/A   Clear
5:53 AM 51.1 °F 30.0 °F 44% 30.12 in 10.0 mi North 6.9 mph - N/A   Clear
6:53 AM 50.0 °F 30.9 °F 48% 30.14 in 10.0 mi North 6.9 mph - N/A   Clear
7:53 AM 52.0 °F 32.0 °F 47% 30.17 in 10.0 mi NNE 5.8 mph - N/A   Clear
8:53 AM 64.9 °F 30.9 °F 28% 30.17 in 10.0 mi Calm Calm - N/A   Clear
9:53 AM 69.1 °F 32.0 °F 25% 30.14 in 10.0 mi West 4.6 mph - N/A   Clear
10:53 AM 73.9 °F 28.9 °F 19% 30.11 in 10.0 mi Variable 5.8 mph - N/A   Clear
11:53 AM 75.9 °F 28.9 °F 18% 30.10 in 10.0 mi NW 11.5 mph - N/A   Clear
12:53 PM 79.0 °F 27.0 °F 15% 30.09 in 10.0 mi Variable 5.8 mph - N/A   Clear
1:53 PM 79.0 °F 26.1 °F 14% 30.06 in 10.0 mi WNW 15.0 mph 20.7 mph N/A   Partly Cloudy
2:53 PM 80.1 °F 27.0 °F 14% 30.05 in 10.0 mi NNW 9.2 mph 16.1 mph N/A   Clear
3:53 PM 81.0 °F 27.0 °F 14% 30.05 in 10.0 mi NW 12.7 mph 18.4 mph N/A   Clear
4:53 PM 79.0 °F 27.0 °F 15% 30.06 in 10.0 mi NW 13.8 mph 23.0 mph N/A   Clear
5:53 PM 77.0 °F 27.0 °F 16% 30.06 in 10.0 mi WNW 13.8 mph 19.6 mph N/A   Clear
6:53 PM 73.0 °F 28.0 °F 19% 30.10 in 10.0 mi NW 15.0 mph - N/A   Clear
7:53 PM 68.0 °F 28.0 °F 22% 30.13 in 10.0 mi NW 10.4 mph - N/A   Clear
8:53 PM 69.1 °F 26.1 °F 20% 30.07 in 10.0 mi NW 18.4 mph 26.5 mph N/A   Clear
9:53 PM 66.9 °F 26.1 °F 21% 30.08 in 10.0 mi NW 16.1 mph - N/A   Clear
10:53 PM 66.9 °F 25.0 °F 21% 30.05 in 10.0 mi NW 16.1 mph 24.2 mph N/A   Clear
11:53 PM 62.1 °F 27.0 °F 26% 30.07 in 10.0 mi Calm Calm - N/A   Clear